DELTA 1 DEB

Satellite information

Favourite Embed

Satellite Type and Status

DEBRISIN ORBIT

Key statistics

Satellite DELTA 1 DEB at a glance.

Uptime

19456

Days in orbit

Revolutions

≈ 14.0

Per day

Orbit

SSO

Sun Synchronous Orbit

Inclination

98.1

Latest

Satellite identification and parameters

Extended collection of information and parameters for DELTA 1 DEB.

Object identification

Identified? True

Debris? True

Object name: DELTA 1 DEB

International designator: 1972-058J

Object number (NORAD): 7838

Object ID (CCSDS): 7838

Country: UNITED STATES OF AMERICA (US)

Current information (Y/N): Y

RCS size: MEDIUM

Orbital parameters

Period: 102.707 minutes

Inclination: 98.1173 deg

SMA: 7264.845 km

Apoapsis: 1107.87 km

Periapsis: 665.551 km

RAAN: 58.3734 deg

Eccentricy: 0.03044247

Argument of periapsis: 69.9312 deg

Mean anomaly: 293.4346 deg

Mean motion: 14.0204899 rev/day

Mean motion (dot): 0.00001265 rev/day2

B* drag term: 0.00056772508 1/REarth

Two-line elements (TLE)

Creation date: Oct. 28, 2025, 7:11 p.m.

Reference frame: TEME

Reference center: EARTH

Epoch: Oct. 28, 2025, 1:39 p.m. UTC

TLE line 0: 0 DELTA 1 DEB

TLE line 1: 1 07838U 72058J 25301.56887242 .00001265 00000-0 56773-3 0 9996

TLE line 2: 2 07838 98.1173 58.3734 0304425 69.9312 293.4346 14.02048990537569

Live tracking on map

Real-time ground track for satellite DELTA 1 DEB.

In-orbit conjunctions

A list of the most updated potential collisions computed for object DELTA 1 DEB.

Target Orbit TCA Probability of collision Miss distance Type
COSMOS 1904 LEO 2025-06-29 08:39:56 0.0004107542 491.0 (m) PAYLOAD

Associated space launch

Earth observation satellite

DELTA 1 DEB was lifted into orbit during the mission ‘Delta 0900 | Landsat 1’, on board a Delta 0900 space rocket.

The launch took place on July 23, 1972, 6:06 p.m. from Space Launch Complex 2W.

For more information about the launch, click the button.

Launch to space Delta 0900 | Landsat 1
Delta 0900 | Landsat 1

Agency: N/A

Status: Launch Successful

Launch date: July 23, 1972, 6:06 p.m. UTC

Rocket: Delta 0900

Launch pad: Space Launch Complex 2W

Location: Vandenberg SFB, CA, USA

...

Latest news about this satellite

There are no fresh news available about this satellite. Check back as we update our databases every day.


Newsletter sign-up

Weekly statistics, charts and insights to help you stay on top of the space industry.